Location: Eboldshausen
(51.7766°N, 10.0050°E)
Time: 17:28:03
(UTC+00:00)

ISS - Pass Details

Date: 15 November 2025
Orbit: 416 x 420 km, 51.6° (Epoch: 09 December)

Event Time Altitude Azimuth Distance (km) Brightness Sun altitude
Rises 17:07:33 0° 214° (SW) 2,359 0.8 -15.0°
Reaches altitude 10° 17:09:55 10° 199° (SSW) 1,497 -0.6 -15.4°
Maximum altitude 17:12:36 22° 146° (SE) 962 -2.2 -15.8°
Enters shadow 17:13:00 22° 135° (SE) 977 -2.2 -15.8°
